TimeEST,TemperatureF,Dew PointF,Humidity,Sea Level PressureIn,VisibilityMPH,Wind Direction,Wind SpeedMPH,Gust SpeedMPH,PrecipitationIn,Events,Conditions,WindDirDegrees,DateUTC
12:15 AM,33.8,24.8,70,30.28,10.0,SE,3.5,-,N/A,,Clear,130,2013-02-19 05:15:00
12:35 AM,33.8,24.8,70,30.28,10.0,ESE,3.5,-,N/A,,Clear,120,2013-02-19 05:35:00
12:55 AM,32.0,24.8,75,30.26,10.0,ESE,3.5,-,N/A,,Clear,120,2013-02-19 05:55:00
1:15 AM,30.2,26.6,86,30.25,10.0,ESE,4.6,-,N/A,,Clear,120,2013-02-19 06:15:00
1:35 AM,30.2,26.6,86,30.24,10.0,ESE,5.8,-,N/A,,Clear,120,2013-02-19 06:35:00
1:55 AM,30.2,26.6,86,30.23,10.0,ESE,3.5,-,N/A,,Clear,120,2013-02-19 06:55:00
2:15 AM,30.2,26.6,86,30.24,10.0,Calm,Calm,-,N/A,,Clear,0,2013-02-19 07:15:00
2:35 AM,30.2,26.6,86,30.24,10.0,Calm,Calm,-,N/A,,Clear,0,2013-02-19 07:35:00
2:55 AM,30.2,26.6,86,30.23,10.0,SE,3.5,-,N/A,,Clear,130,2013-02-19 07:55:00
3:15 AM,30.2,26.6,86,30.22,10.0,SE,3.5,-,N/A,,Clear,130,2013-02-19 08:15:00
3:35 AM,32.0,26.6,80,30.20,10.0,SE,4.6,-,N/A,,Clear,140,2013-02-19 08:35:00
3:55 AM,32.0,26.6,80,30.19,10.0,ESE,3.5,-,N/A,,Clear,120,2013-02-19 08:55:00
4:15 AM,30.2,26.6,86,30.18,10.0,ESE,4.6,-,N/A,,Clear,120,2013-02-19 09:15:00
4:35 AM,30.2,26.6,86,30.17,10.0,ESE,4.6,-,N/A,,Clear,120,2013-02-19 09:35:00
5:15 AM,30.2,26.6,86,30.16,10.0,ESE,3.5,-,N/A,,Clear,120,2013-02-19 10:15:00
5:35 AM,30.2,26.6,86,30.16,10.0,SE,4.6,-,N/A,,Clear,130,2013-02-19 10:35:00
5:55 AM,32.0,26.6,80,30.15,10.0,Calm,Calm,-,N/A,,Clear,0,2013-02-19 10:55:00
6:15 AM,32.0,28.4,87,30.15,10.0,SE,3.5,-,N/A,,Clear,130,2013-02-19 11:15:00
6:35 AM,32.0,28.4,87,30.15,10.0,ESE,3.5,-,N/A,,Clear,120,2013-02-19 11:35:00
6:55 AM,32.0,28.4,87,30.14,10.0,ESE,3.5,-,N/A,,Clear,120,2013-02-19 11:55:00
7:15 AM,32.0,28.4,87,30.13,10.0,ESE,3.5,-,N/A,,Scattered Clouds,120,2013-02-19 12:15:00
7:35 AM,32.0,30.2,93,30.12,10.0,ESE,3.5,-,N/A,,Scattered Clouds,120,2013-02-19 12:35:00
7:55 AM,35.6,30.2,81,30.12,10.0,SE,5.8,-,N/A,,Scattered Clouds,140,2013-02-19 12:55:00
8:15 AM,35.6,32.0,87,30.12,10.0,SE,4.6,-,N/A,,Scattered Clouds,140,2013-02-19 13:15:00
8:35 AM,37.4,32.0,81,30.12,10.0,SSE,4.6,-,N/A,,Mostly Cloudy,150,2013-02-19 13:35:00
8:55 AM,39.2,32.0,75,30.10,10.0,SSE,4.6,-,N/A,,Overcast,150,2013-02-19 13:55:00
9:15 AM,41.0,33.8,76,30.10,-9999.0,South,4.6,-,N/A,,Overcast,170,2013-02-19 14:15:00
9:35 AM,41.0,33.8,76,30.09,10.0,South,3.5,-,N/A,,Mostly Cloudy,180,2013-02-19 14:35:00
10:15 AM,42.8,35.6,76,30.07,10.0,SSE,6.9,-,N/A,,Overcast,150,2013-02-19 15:15:00
10:35 AM,44.6,35.6,71,30.07,10.0,SE,5.8,-,N/A,,Overcast,140,2013-02-19 15:35:00
10:55 AM,46.4,37.4,71,30.05,10.0,SE,6.9,-,N/A,,Overcast,140,2013-02-19 15:55:00
11:15 AM,48.2,39.2,71,30.03,10.0,SSE,5.8,-,N/A,,Mostly Cloudy,160,2013-02-19 16:15:00
11:35 AM,50.0,41.0,71,30.02,10.0,South,6.9,-,N/A,,Scattered Clouds,180,2013-02-19 16:35:00
11:55 AM,51.8,41.0,67,30.01,10.0,South,4.6,-,N/A,,Mostly Cloudy,190,2013-02-19 16:55:00
12:15 PM,51.8,42.8,71,30.00,7.0,SSW,5.8,-,N/A,,Drizzle,200,2013-02-19 17:15:00
12:35 PM,50.0,44.6,82,29.99,5.0,SSE,4.6,-,N/A,,Unknown,150,2013-02-19 17:35:00
12:55 PM,48.2,46.4,93,29.97,-9999.0,SSE,5.8,-,0.01,Rain,Light Rain,150,2013-02-19 17:55:00
1:15 PM,50.0,48.2,94,29.95,10.0,SSE,8.1,-,0.01,Rain,Light Rain,160,2013-02-19 18:15:00
1:35 PM,50.0,50.0,100,29.92,10.0,SSE,6.9,-,0.01,,Overcast,160,2013-02-19 18:35:00
1:55 PM,51.8,50.0,94,29.92,10.0,South,11.5,18.4,0.01,,Overcast,180,2013-02-19 18:55:00
2:15 PM,51.8,48.2,88,29.90,10.0,South,11.5,17.3,N/A,,Overcast,180,2013-02-19 19:15:00
2:35 PM,51.8,48.2,88,29.87,10.0,South,11.5,20.7,N/A,Rain,Light Rain,180,2013-02-19 19:35:00
2:55 PM,51.8,48.2,88,29.86,10.0,South,10.4,17.3,N/A,,Overcast,190,2013-02-19 19:55:00
3:15 PM,51.8,50.0,94,29.85,5.0,South,9.2,16.1,N/A,,Drizzle,180,2013-02-19 20:15:00
3:35 PM,51.8,50.0,94,29.85,10.0,South,11.5,17.3,N/A,,Overcast,170,2013-02-19 20:35:00
4:15 PM,51.8,50.0,94,29.84,4.0,South,9.2,16.1,N/A,,Overcast,190,2013-02-19 21:15:00
4:35 PM,51.8,50.0,94,29.83,7.0,South,12.7,17.3,N/A,,Overcast,190,2013-02-19 21:35:00
4:55 PM,50.0,50.0,100,29.83,-9999.0,South,5.8,-,N/A,,Drizzle,190,2013-02-19 21:55:00
5:15 PM,50.0,50.0,100,29.84,10.0,SW,8.1,-,N/A,,Overcast,220,2013-02-19 22:15:00
5:35 PM,51.8,50.0,94,29.84,10.0,SW,8.1,17.3,N/A,,Overcast,230,2013-02-19 22:35:00
5:55 PM,51.8,46.4,82,29.85,-9999.0,SW,10.4,25.3,N/A,,Unknown,220,2013-02-19 22:55:00
6:15 PM,50.0,46.4,87,29.87,10.0,SW,9.2,18.4,N/A,,Overcast,230,2013-02-19 23:15:00
7:55 PM,46.4,44.6,93,29.90,10.0,SW,8.1,-,N/A,,Clear,220,2013-02-20 00:55:00
8:15 PM,46.4,44.6,93,29.90,10.0,SW,6.9,-,N/A,,Clear,220,2013-02-20 01:15:00
8:35 PM,44.6,42.8,93,29.90,10.0,SSW,8.1,-,N/A,,Clear,210,2013-02-20 01:35:00
8:55 PM,44.6,42.8,93,29.91,10.0,SW,8.1,-,N/A,,Clear,220,2013-02-20 01:55:00
9:15 PM,44.6,42.8,93,29.92,10.0,SW,6.9,-,N/A,,Clear,220,2013-02-20 02:15:00
9:35 PM,44.6,42.8,93,29.92,10.0,SW,5.8,-,N/A,,Clear,220,2013-02-20 02:35:00
9:55 PM,42.8,41.0,93,29.92,10.0,SW,4.6,-,N/A,,Clear,230,2013-02-20 02:55:00
10:15 PM,42.8,41.0,93,29.93,-9999.0,SW,5.8,-,N/A,,Unknown,230,2013-02-20 03:15:00
10:35 PM,42.8,41.0,93,29.93,10.0,WSW,6.9,-,N/A,,Clear,240,2013-02-20 03:35:00
10:55 PM,42.8,39.2,87,29.93,10.0,WSW,3.5,-,N/A,,Clear,250,2013-02-20 03:55:00
11:15 PM,41.0,39.2,93,29.93,10.0,SW,4.6,-,N/A,,Clear,230,2013-02-20 04:15:00
11:35 PM,41.0,37.4,87,29.93,10.0,SW,3.5,-,N/A,,Clear,220,2013-02-20 04:35:00
11:55 PM,39.2,37.4,93,29.93,10.0,SW,4.6,-,N/A,,Clear,230,2013-02-20 04:55:00